Location: ???????
(55.3754°N, 39.3545°E)
Time: 11:13:51
(UTC+00:00)

SeaSat 1 - Pass Details

Date: 14 April 2026
Orbit: 736 x 740 km, 108.0° (Epoch: 10 May)

Event Time Altitude Azimuth Distance (km) Brightness Sun altitude
Exits shadow 19:43:02 50° 179° (S) 941 2.5 -21.7°
Maximum altitude 19:44:11 68° 239° (WSW) 801 2.5 -21.8°
Drops below altitude 10° 19:49:05 10° 323° (NW) 2,261 6.0 -22.1°
Sets 19:51:22 0° 326° (NW) 3,189 7.1 -22.2°
